Weather History for Crestview, FL

Change the Weather History Date:

Tuesday, November 13, 2012

  Actual Average Record
Temperature  
Mean Temperature 50 °F -  
Max Temperature 62 °F - - ()
Min Temperature 38 °F - - ()
Degree Days  
Heating Degree Days 15    
Moisture  
Dew Point 37 °F    
Average Humidity 65    
Maximum Humidity 87    
Minimum Humidity 30    
Precipitation  
Precipitation 0.00 in - - ()
Sea Level Pressure  
Sea Level Pressure 30.27 in    
Wind  
Wind Speed 12 mph (North)    
Max Wind Speed 17 mph    
Max Gust Speed 24 mph    
Visibility 10 miles    
Events      
T = Trace of Precipitation, MM = Missing Value Source: NWS Daily Summary

Daily Weather History Graph

Daily Weather History Graph

Search for Another Location

Airport:

Trip Planner

Search our weather history database for the weather conditions in past years. The results will help you decide how hot, cold, wet, or windy it might be!

Date:

Astronomy

Nov. 13, 2012 Rise Set
Actual Time 6:11 AM CST 4:49 PM CST
Civil Twilight 5:45 AM CST 5:14 PM CST
Nautical Twilight 5:16 AM CST 5:43 PM CST
Astronomical Twilight 4:47 AM CST 6:12 PM CST
Moon 5:47 AM CST (11/13) 4:44 PM CST (11/13)
Length of Visible Light 11h 29m
Length of Day
10h 38m
Waning Crescent, 0% of the Moon is Illuminated
Nov 13
Waning Crescent
Nov 13
New
Nov 20
First Quarter
Nov 28
Full
Dec 6
Last Quarter

Hourly Weather History & Observations

Time (CST) Temp. Windchill Dew Point Humidity Pressure Visibility Wind Dir Wind Speed Gust Speed Precip Events Conditions
12:55 AM 51.6 °F - 47.3 °F 85% 30.27 in 10.0 mi North 11.5 mph 20.7 mph N/A   Overcast
1:39 AM 50.0 °F - 46.4 °F 87% 30.26 in 10.0 mi North 15.0 mph - N/A   Overcast
1:55 AM 50.2 °F - 45.7 °F 85% 30.26 in 10.0 mi North 12.7 mph 20.7 mph N/A   Overcast
2:55 AM 48.9 °F - 44.1 °F 83% 30.27 in 10.0 mi North 13.8 mph - N/A   Overcast
3:15 AM 48.2 °F - 42.8 °F 82% 30.27 in 10.0 mi North 15.0 mph 20.7 mph N/A   Overcast
3:44 AM 48.2 °F - 41.0 °F 76% 30.27 in 10.0 mi North 13.8 mph - N/A   Overcast
3:55 AM 48.0 °F - 41.9 °F 79% 30.27 in 10.0 mi North 12.7 mph - N/A   Overcast
4:30 AM 46.4 °F 39.5 °F 39.2 °F 76% 30.28 in 10.0 mi North 17.3 mph - N/A   Overcast
4:55 AM 46.4 °F 40.1 °F 38.8 °F 75% 30.28 in 10.0 mi North 15.0 mph 23.0 mph N/A   Overcast
5:55 AM 43.2 °F 36.2 °F 37.0 °F 79% 30.30 in 10.0 mi North 13.8 mph - N/A   Clear
6:55 AM 41.9 °F 34.6 °F 35.6 °F 78% 30.32 in 10.0 mi North 13.8 mph 23.0 mph N/A   Clear
7:55 AM 44.4 °F 37.9 °F 34.7 °F 69% 30.34 in 10.0 mi North 13.8 mph 24.2 mph N/A   Clear
8:55 AM 48.2 °F - 33.8 °F 58% 30.33 in 10.0 mi North 12.7 mph 19.6 mph N/A   Partly Cloudy
9:55 AM 51.4 °F - 32.5 °F 49% 30.32 in 10.0 mi NNW 12.7 mph - N/A   Partly Cloudy
10:55 AM 55.2 °F - 32.0 °F 41% 30.30 in 10.0 mi North 13.8 mph - N/A   Partly Cloudy
11:55 AM 58.8 °F - 31.3 °F 35% 30.27 in 10.0 mi North 11.5 mph - N/A   Partly Cloudy
12:55 PM 60.8 °F - 31.6 °F 33% 30.24 in 10.0 mi NNW 12.7 mph - N/A   Partly Cloudy
1:55 PM 62.8 °F - 31.1 °F 30% 30.22 in 10.0 mi NNW 12.7 mph - N/A   Partly Cloudy
2:55 PM 62.1 °F - 32.7 °F 33% 30.21 in 10.0 mi North 10.4 mph - N/A   Partly Cloudy
3:55 PM 60.8 °F - 33.8 °F 36% 30.22 in 10.0 mi North 11.5 mph - N/A   Partly Cloudy
4:55 PM 54.1 °F - 35.6 °F 50% 30.22 in 10.0 mi North 6.9 mph - N/A   Partly Cloudy
5:55 PM 49.8 °F - 34.7 °F 56% 30.24 in 10.0 mi NNW 6.9 mph - N/A   Partly Cloudy
6:55 PM 46.6 °F - 35.1 °F 64% 30.26 in 10.0 mi NNW 5.8 mph - N/A   Scattered Clouds
7:55 PM 43.3 °F 40.7 °F 35.6 °F 74% 30.27 in 10.0 mi North 4.6 mph - N/A   Scattered Clouds
8:55 PM 43.5 °F 40.9 °F 34.0 °F 69% 30.27 in 10.0 mi North 4.6 mph - N/A   Mostly Cloudy
9:55 PM 39.7 °F 35.6 °F 34.5 °F 82% 30.27 in 10.0 mi NNW 5.8 mph - N/A   Mostly Cloudy
10:55 PM 38.8 °F 33.8 °F 33.4 °F 81% 30.25 in 10.0 mi North 6.9 mph - N/A   Mostly Cloudy
11:55 PM 40.5 °F 36.5 °F 32.9 °F 74% 30.24 in 10.0 mi North 5.8 mph - N/A   Mostly Cloudy